Weather History for Juneau, WI

Change the Weather History Date:

Saturday, May 4, 2013

  Actual Average Record
Temperature  
Mean Temperature 58 °F -  
Max Temperature 70 °F 62 °F 88 °F (1980)
Min Temperature 46 °F 44 °F 30 °F (1976)
Degree Days  
Heating Degree Days 8    
Growing Degree Days 8 (Base 50)    
Moisture  
Dew Point 43 °F    
Average Humidity 62    
Maximum Humidity 90    
Minimum Humidity 31    
Precipitation  
Precipitation 0.01 in - - ()
Sea Level Pressure  
Sea Level Pressure 30.04 in    
Wind  
Wind Speed 7 mph (NE)    
Max Wind Speed 18 mph    
Max Gust Speed 20 mph    
Visibility 10 miles    
Events Rain    
Averages and records for this station are not official NWS values.
T = Trace of Precipitation, MM = Missing Value Source: NWS Daily Summary

Daily Weather History Graph

Daily Weather History Graph

Search for Another Location

Airport:

Trip Planner

Search our weather history database for the weather conditions in past years. The results will help you decide how hot, cold, wet, or windy it might be!

Date:

Astronomy

May. 04, 2013 Rise Set
Actual Time 5:43 AM CDT 8:00 PM CDT
Civil Twilight 5:11 AM CDT 8:32 PM CDT
Nautical Twilight 4:32 AM CDT 9:11 PM CDT
Astronomical Twilight 3:48 AM CDT 9:55 PM CDT
Moon 2:51 AM CDT (5/4) 2:49 PM CDT (5/4)
Length of Visible Light 15h 20m
Length of Day
14h 17m
Waning Crescent, 27% of the Moon is Illuminated
May 4
Waning Crescent
May 9
New
May 17
First Quarter
May 24
Full
May 31
Last Quarter

Hourly Weather History & Observations

Time (CDT) Temp. Windchill Dew Point Humidity Pressure Visibility Wind Dir Wind Speed Gust Speed Precip Events Conditions
12:15 AM 48.4 °F - 45.3 °F 89% 30.02 in 10.0 mi NNE 4.6 mph - N/A   Overcast
12:35 AM 48.4 °F - 44.6 °F 87% 30.02 in 10.0 mi NNE 3.5 mph - N/A   Mostly Cloudy
12:55 AM 48.4 °F - 44.6 °F 87% 30.02 in 10.0 mi Calm Calm - N/A   Mostly Cloudy
1:15 AM 48.4 °F - 44.6 °F 87% 30.02 in 10.0 mi NE 5.8 mph - N/A   Light Drizzle
1:35 AM 48.6 °F - 44.8 °F 87% 30.03 in 10.0 mi East 5.8 mph - N/A   Overcast
1:55 AM 48.4 °F - 45.0 °F 88% 30.01 in 10.0 mi NE 8.1 mph - 0.01 in Rain Rain
2:15 AM 48.2 °F - 45.5 °F 90% 30.00 in 10.0 mi NNE 8.1 mph - N/A Rain Light Rain
2:35 AM 48.2 °F - 45.0 °F 89% 30.00 in 10.0 mi NNE 10.4 mph - N/A   Overcast
2:55 AM 47.8 °F - 44.8 °F 89% 30.00 in 10.0 mi NNE 10.4 mph - N/A Rain Light Rain
3:15 AM 48.0 °F - 44.6 °F 88% 29.99 in 10.0 mi NNE 10.4 mph - N/A   Overcast
3:35 AM 47.8 °F - 44.6 °F 89% 30.00 in 10.0 mi NNE 8.1 mph - N/A   Overcast
3:55 AM 48.0 °F - 43.9 °F 86% 30.00 in 10.0 mi NNE 6.9 mph - N/A   Overcast
4:15 AM 47.8 °F - 43.7 °F 86% 30.00 in 10.0 mi NNE 6.9 mph - N/A   Overcast
4:35 AM 47.7 °F - 43.7 °F 86% 30.02 in 10.0 mi NE 6.9 mph - N/A   Overcast
4:55 AM 47.5 °F - 43.7 °F 87% 30.01 in 10.0 mi NNE 6.9 mph - N/A   Overcast
5:15 AM 47.3 °F - 43.0 °F 85% 30.02 in 10.0 mi NNE 8.1 mph - N/A   Overcast
5:35 AM 46.9 °F - 43.0 °F 86% 30.02 in 10.0 mi NNE 5.8 mph - N/A   Overcast
5:55 AM 46.4 °F 42.9 °F 42.6 °F 87% 30.03 in 10.0 mi NNE 6.9 mph - N/A   Mostly Cloudy
6:15 AM 46.4 °F 42.9 °F 42.3 °F 85% 30.03 in 10.0 mi NNE 6.9 mph - N/A   Scattered Clouds
6:35 AM 46.4 °F 42.9 °F 41.9 °F 84% 30.03 in 10.0 mi North 6.9 mph - N/A   Clear
6:55 AM 46.8 °F - 41.9 °F 83% 30.03 in 10.0 mi NNE 9.2 mph - N/A   Clear
7:15 AM 47.3 °F - 42.1 °F 82% 30.04 in 10.0 mi NNE 8.1 mph - N/A   Clear
7:35 AM 48.2 °F - 42.6 °F 81% 30.04 in 10.0 mi NE 6.9 mph - N/A   Scattered Clouds
7:55 AM 48.7 °F - 42.3 °F 78% 30.04 in 10.0 mi NNE 8.1 mph - N/A   Mostly Cloudy
8:15 AM 49.3 °F - 42.8 °F 78% 30.04 in 10.0 mi NNE 8.1 mph - N/A   Overcast
8:35 AM 50.4 °F - 43.0 °F 76% 30.05 in 10.0 mi NNE 6.9 mph - N/A   Mostly Cloudy
8:55 AM 51.1 °F - 43.2 °F 74% 30.05 in 10.0 mi NNE 8.1 mph - N/A   Scattered Clouds
9:15 AM 51.8 °F - 43.7 °F 74% 30.05 in 10.0 mi NNE 9.2 mph - N/A   Mostly Cloudy
9:35 AM 52.5 °F - 44.1 °F 73% 30.05 in 10.0 mi NNE 6.9 mph - N/A   Scattered Clouds
9:55 AM 54.3 °F - 44.6 °F 70% 30.05 in 10.0 mi NNE 8.1 mph - N/A   Scattered Clouds
10:15 AM 55.4 °F - 44.6 °F 67% 30.06 in 10.0 mi NNE 6.9 mph - N/A   Scattered Clouds
10:35 AM 56.8 °F - 45.1 °F 65% 30.06 in 10.0 mi NNE 5.8 mph - N/A   Mostly Cloudy
10:55 AM 57.7 °F - 45.1 °F 63% 30.06 in 10.0 mi NNE 6.9 mph - N/A   Mostly Cloudy
11:15 AM 59.2 °F - 45.3 °F 60% 30.06 in 10.0 mi NNE 5.8 mph - N/A   Scattered Clouds
11:35 AM 61.5 °F - 45.5 °F 56% 30.07 in 10.0 mi East 3.5 mph - N/A   Scattered Clouds
11:55 AM 62.8 °F - 45.1 °F 53% 30.06 in 10.0 mi ENE 5.8 mph - N/A   Clear
12:15 PM 63.9 °F - 45.7 °F 52% 30.06 in 10.0 mi East 4.6 mph - N/A   Clear
12:35 PM 65.3 °F - 45.3 °F 48% 30.05 in 10.0 mi ENE 5.8 mph - N/A   Clear
12:55 PM 65.5 °F - 45.1 °F 48% 30.05 in 10.0 mi NE 4.6 mph - N/A   Clear
1:15 PM 66.7 °F - 45.1 °F 46% 30.04 in 10.0 mi North 6.9 mph - N/A   Clear
1:35 PM 67.3 °F - 46.0 °F 46% 30.04 in 10.0 mi NE 8.1 mph - N/A   Clear
1:55 PM 68.2 °F - 43.0 °F 40% 30.03 in 10.0 mi NNE 11.5 mph - N/A   Clear
2:15 PM 68.5 °F - 41.2 °F 37% 30.03 in 10.0 mi East 9.2 mph - N/A   Clear
2:35 PM 69.3 °F - 42.3 °F 38% 30.03 in 10.0 mi ENE 10.4 mph - N/A   Clear
2:55 PM 69.4 °F - 41.0 °F 36% 30.03 in 10.0 mi East 12.7 mph 17.3 mph N/A   Clear
3:15 PM 68.9 °F - 39.2 °F 34% 30.02 in 10.0 mi ENE 13.8 mph - N/A   Clear
3:35 PM 69.6 °F - 40.6 °F 35% 30.02 in 10.0 mi East 10.4 mph 16.1 mph N/A   Clear
3:55 PM 69.6 °F - 37.6 °F 31% 30.03 in 10.0 mi East 18.4 mph - N/A   Clear
4:15 PM 68.7 °F - 39.7 °F 35% 30.03 in 10.0 mi East 11.5 mph 19.6 mph N/A   Clear
4:35 PM 67.8 °F - 39.7 °F 36% 30.03 in 10.0 mi East 13.8 mph - N/A   Clear
4:55 PM 67.3 °F - 40.1 °F 37% 30.03 in 10.0 mi East 11.5 mph - N/A   Clear
5:15 PM 66.7 °F - 41.4 °F 40% 30.03 in 10.0 mi ESE 10.4 mph - N/A   Clear
5:35 PM 67.1 °F - 41.5 °F 39% 30.04 in 10.0 mi ESE 6.9 mph - N/A   Clear
5:55 PM 67.5 °F - 41.2 °F 38% 30.03 in 10.0 mi East 6.9 mph - N/A   Clear
6:15 PM 68.0 °F - 42.4 °F 39% 30.03 in 10.0 mi ESE 5.8 mph - N/A   Clear
6:35 PM 66.6 °F - 41.4 °F 40% 30.04 in 10.0 mi East 6.9 mph - N/A   Clear
6:55 PM 66.4 °F - 41.7 °F 41% 30.04 in 10.0 mi East 8.1 mph - N/A   Clear
7:15 PM 64.8 °F - 42.4 °F 44% 30.04 in 10.0 mi ENE 4.6 mph - N/A   Clear
7:35 PM 63.7 °F - 42.3 °F 46% 30.05 in 10.0 mi NE 4.6 mph - N/A   Clear
7:55 PM 63.0 °F - 42.6 °F 47% 30.05 in 10.0 mi NNE 4.6 mph - N/A   Clear
8:15 PM 61.7 °F - 42.8 °F 50% 30.06 in 10.0 mi NNE 4.6 mph - N/A   Clear
8:35 PM 61.2 °F - 42.8 °F 51% 30.06 in 10.0 mi NE 5.8 mph - N/A   Clear
8:55 PM 60.8 °F - 42.3 °F 50% 30.07 in 10.0 mi ENE 4.6 mph - N/A   Clear
9:15 PM 59.9 °F - 42.4 °F 52% 30.07 in 10.0 mi NE 5.8 mph - N/A   Clear
9:35 PM 59.4 °F - 42.1 °F 53% 30.08 in 10.0 mi NE 5.8 mph - N/A   Clear
9:55 PM 58.6 °F - 42.1 °F 54% 30.08 in 10.0 mi NE 4.6 mph - N/A   Clear
10:15 PM 58.1 °F - 40.3 °F 52% 30.07 in 10.0 mi NE 4.6 mph - N/A   Clear
10:35 PM 58.1 °F - 39.7 °F 50% 30.07 in 10.0 mi NNE 3.5 mph - N/A   Clear
10:55 PM 57.0 °F - 38.8 °F 51% 30.07 in 10.0 mi NE 4.6 mph - N/A   Clear
11:15 PM 56.3 °F - 39.0 °F 52% 30.07 in 10.0 mi NNE 4.6 mph - N/A   Clear
11:35 PM 55.4 °F - 38.5 °F 53% 30.07 in 10.0 mi NNE 3.5 mph - N/A   Clear
11:55 PM 55.8 °F - 37.8 °F 51% 30.06 in 10.0 mi NNE 4.6 mph - N/A   Clear